Weather observations for the past three days for
Leesburg / Godfrey
Imperial (Metric)
Date Time (edt) Wind (mph) Vis. (mi.) Weather Sky Cond. Temperature (ºF) Relative Humidity Wind Chill (°F) Heat Index (°F) Pressure Precipitation (in)
Air Dwpt 6 hour altimeter (in) sea level (mb) 1 hr 3 hr 6 hr
Max. Min.
17 06:15 Calm 10.00 Fair CLR 73.4 73.4 100% 29.88 0.0
17 05:55 Calm 10.00 Fair CLR 73.4 73.4 100% 29.88 0.0
17 05:35 Calm 10.00 Fair CLR 75.2 73.4 94% 74 29.88 0.0
17 05:15 Calm 10.00 Partly Cloudy SCT120 73.4 73.4 100% 29.87 0.0
17 04:55 Calm 10.00 Fair CLR 73.4 73.4 100% 29.86 0.0
17 04:35 Calm 10.00 Fair CLR 75.2 75.2 100% 73 29.86 0.0
17 04:15 NW 3 10.00 Fair CLR 75.2 75.2 100% 73 29.85 0.0
17 03:55 Calm 10.00 Fair CLR 75.2 73.4 94% 74 29.85 0.0
17 03:35 Calm 10.00 Fair CLR 77 73.4 89% 78 29.85 0.0
17 03:15 Calm 10.00 Fair CLR 75.2 75.2 100% 73 29.85 0.0
17 02:55 Calm 10.00 Fair CLR 75.2 75.2 100% 73 29.85 0.0
17 02:35 Calm 10.00 Fair CLR 77 77 100% 78 29.86 0.0
17 02:15 Calm 10.00 Fair CLR 77 77 100% 78 29.86 0.0
17 01:55 Calm 10.00 Fair CLR 75.2 75.2 100% 73 29.86 0.0
17 01:35 Calm 10.00 Fair CLR 75.2 75.2 100% 73 29.87 0.0
17 01:15 Calm 10.00 Fair CLR 75.2 73.4 94% 74 29.86 0.0
17 00:55 Calm 10.00 Partly Cloudy SCT095 75.2 73.4 94% 74 29.87 0.0
17 00:35 Calm 10.00 Fair CLR 75.2 73.4 94% 74 29.88 0.0
17 00:15 S 5 10.00 Fair CLR 73.4 73.4 100% 29.88 0.0
16 23:55 Calm 10.00 Mostly Cloudy BKN100 75.2 75.2 100% 73 29.87 0.0
16 23:35 Calm 10.00 Mostly Cloudy BKN100 75.2 75.2 100% 73 29.88 0.0
16 23:15 W 3 10.00 Partly Cloudy SCT100 75.2 75.2 100% 73 29.88 0.0
16 22:55 Calm 10.00 Partly Cloudy SCT100 77 77 100% 78 29.87 0.0
16 22:35 NW 3 10.00 Fair CLR 75.2 75.2 100% 73 29.87 0.0
16 22:15 Calm 10.00 Partly Cloudy SCT100 75.2 75.2 100% 73 29.85 0.0
16 21:55 Calm 10.00 Fair CLR 75.2 75.2 100% 73 29.85 0.0 0.01
16 21:35 Calm 10.00 Partly Cloudy SCT090 SCT110 75.2 75.2 100% 73 29.84 0.0 0.01
16 21:15 W 9 10.00 Thunderstorm SCT022 SCT048 BKN110 77 75.2 94% 78 29.85 0.0 0.01
16 20:55 N 16 G 26 3.00 Thunderstorm Heavy Rain SCT021 BKN055 OVC070 75.2 73.4 94% 74 29.85 0.0 0.4
16 20:35 NW 23 G 35 4.00 Thunderstorm Rain in Vicinity and Breezy SCT036 BKN075 OVC100 78.8 73.4 84% 82 29.86 0.0 0.11
16 20:15 NW 9 G 16 10.00 Overcast OVC100 91.4 71.6 52% 99 29.82 0.0
16 19:55 NW 6 10.00 Mostly Cloudy BKN110 91.4 73.4 56% 100 29.8 0.0
16 19:35 S 15 G 18 10.00 Partly Cloudy SCT110 91.4 71.6 52% 99 29.79 0.0
16 19:15 SW 7 G 16 10.00 Partly Cloudy SCT110 95 73.4 50% 105 29.8 0.0
16 18:55 S 7 10.00 Mostly Cloudy BKN110 95 75.2 53% 107 29.8 0.0
16 18:35 SW 9 G 16 10.00 Partly Cloudy SCT100 96.8 73.4 47% 107 29.79 0.0
16 18:15 S 9 G 16 10.00 Partly Cloudy SCT100 96.8 73.4 47% 107 29.78 0.0
16 17:55 SW 8 10.00 Fair CLR 96.8 71.6 44% 105 29.78 0.0
16 17:35 SW 15 G 22 10.00 Fair CLR 98.6 75.2 47% 112 29.78 0.0
16 17:15 S 9 10.00 Fair CLR 100.4 73.4 42% 112 29.78 0.0
16 16:55 SW 13 G 22 10.00 Fair CLR 100.4 75.2 45% 114 29.78 0.0
16 16:35 SW 18 G 26 10.00 Fair CLR 100.4 75.2 45% 114 29.78 0.0
16 16:15 S 14 G 21 10.00 Fair CLR 100.4 73.4 42% 112 29.79 0.0
16 15:55 S 14 G 21 10.00 Fair CLR 100.4 73.4 42% 112 29.8 0.0
16 15:35 S 9 G 16 10.00 Partly Cloudy SCT070 98.6 73.4 44% 110 29.8 0.0
16 15:15 SW 14 G 20 10.00 Partly Cloudy SCT070 100.4 73.4 42% 112 29.81 0.0
16 14:55 S 9 G 18 10.00 Partly Cloudy SCT070 100.4 73.4 42% 112 29.82 0.0
16 14:35 SW 13 G 16 10.00 Partly Cloudy SCT070 98.6 73.4 44% 110 29.82 0.0
16 14:15 S 15 G 25 10.00 Partly Cloudy SCT070 98.6 73.4 44% 110 29.83 0.0
16 13:55 SW 14 G 20 10.00 Fair CLR 100.4 73.4 42% 112 29.84 0.0
16 13:35 S 10 G 20 10.00 Fair CLR 98.6 73.4 44% 110 29.84 0.0
16 13:15 S 14 G 22 10.00 Fair CLR 98.6 71.6 42% 108 29.85 0.0
16 12:55 S 14 G 25 10.00 Fair CLR 98.6 71.6 42% 108 29.85 0.0
16 12:35 S 12 G 18 10.00 Fair CLR 98.6 73.4 44% 110 29.86 0.0
16 12:15 SW 6 G 18 10.00 Fair CLR 98.6 71.6 42% 108 29.87 0.0
16 11:55 SW 12 G 18 10.00 Fair CLR 98.6 71.6 42% 108 29.87 0.0
16 11:35 W 9 G 17 10.00 Fair CLR 96.8 73.4 47% 107 29.87 0.0
16 11:15 SW 8 10.00 Fair CLR 95 73.4 50% 105 29.87 0.0
16 10:55 W 6 10.00 Fair CLR 95 73.4 50% 105 29.87 0.0
16 10:35 SW 8 10.00 Fair CLR 95 73.4 50% 105 29.87 0.0
16 10:15 W 3 10.00 Fair CLR 91.4 75.2 59% 103 29.88 0.0
16 09:55 Calm 10.00 Fair CLR 89.6 73.4 59% 98 29.88 0.0
16 09:35 S 5 10.00 Fair CLR 87.8 73.4 62% 96 29.88 0.0
16 09:15 S 3 10.00 Fair CLR 86 73.4 66% 93 29.88 0.0
16 08:55 S 3 10.00 Fair CLR 84.2 73.4 70% 91 29.89 0.0
16 08:35 Calm 10.00 Fair CLR 82.4 73.4 74% 88 29.9 0.0
16 08:15 SW 3 10.00 Fair CLR 80.6 73.4 79% 85 29.9 0.0
16 07:55 Calm 10.00 Fair CLR 78.8 73.4 84% 82 29.9 0.0
16 07:35 Calm 10.00 Fair CLR 77 73.4 89% 78 29.9 0.0
16 07:15 Calm 10.00 Fair CLR 77 71.6 83% 78 29.89 0.0
16 06:55 Calm 10.00 Fair CLR 75.2 71.6 89% 75 29.89 0.0
16 06:35 Calm 10.00 Fair CLR 75.2 71.6 89% 75 29.88 0.0
16 06:15 Calm 10.00 Fair CLR 73.4 71.6 94% 29.87 0.0
16 05:55 S 5 10.00 Fair CLR 75.2 71.6 89% 75 29.87 0.0
16 05:35 Calm 10.00 Fair CLR 75.2 71.6 89% 75 29.86 0.0
16 05:15 Calm 10.00 Fair CLR 77 71.6 83% 78 29.86 0.0
16 04:55 Calm 10.00 Fair CLR 77 71.6 83% 78 29.87 0.0
16 04:35 SW 3 10.00 Fair CLR 77 71.6 83% 78 29.86 0.0
16 04:15 Calm 10.00 Fair CLR 77 71.6 83% 78 29.86 0.0
16 03:55 Calm 10.00 Fair CLR 77 71.6 83% 78 29.86 0.0
16 03:35 W 3 10.00 Fair CLR 77 71.6 83% 78 29.86 0.0
16 03:15 Calm 10.00 Fair CLR 77 71.6 83% 78 29.85 0.0
16 02:55 Calm 10.00 Fair CLR 77 71.6 83% 78 29.85 0.0
16 02:35 W 3 10.00 Fair CLR 77 71.6 83% 78 29.85 0.0
16 02:15 W 7 10.00 Fair CLR 77 71.6 83% 78 29.84 0.0
16 01:55 SW 6 10.00 Fair CLR 78.8 71.6 79% 82 29.85 0.0
16 01:35 SW 5 10.00 Fair CLR 77 71.6 83% 78 29.85 0.0
16 01:15 W 3 10.00 Fair CLR 78.8 71.6 79% 82 29.85 0.0
16 00:55 SW 5 10.00 Fair CLR 78.8 71.6 79% 82 29.85 0.0
16 00:35 S 3 10.00 Fair CLR 78.8 71.6 79% 82 29.85 0.0
16 00:15 SW 5 10.00 Fair CLR 78.8 71.6 79% 82 29.85 0.0
15 23:55 SW 5 10.00 Fair CLR 78.8 71.6 79% 82 29.85 0.0
15 23:35 SW 5 10.00 Fair CLR 78.8 71.6 79% 82 29.86 0.0
15 23:15 SW 5 10.00 Fair CLR 78.8 71.6 79% 82 29.87 0.0
15 22:55 SW 6 10.00 Fair CLR 78.8 71.6 79% 82 29.88 0.0
15 22:35 SW 5 10.00 Fair CLR 78.8 71.6 79% 82 29.88 0.0
15 22:15 SW 5 10.00 Fair CLR 78.8 69.8 74% 81 29.88 0.0
15 21:55 SW 5 10.00 Fair CLR 78.8 69.8 74% 81 29.88 0.0
15 21:35 SW 5 10.00 Fair CLR 80.6 69.8 70% 84 29.88 0.0
15 21:15 W 5 10.00 Fair CLR 80.6 71.6 74% 85 29.88 0.0
15 20:55 SW 6 10.00 Fair CLR 82.4 69.8 66% 86 29.87 0.0
15 20:35 SW 8 10.00 Fair CLR 82.4 69.8 66% 86 29.87 0.0
15 20:15 SW 5 10.00 Partly Cloudy SCT120 86 71.6 62% 92 29.86 0.0
15 19:55 SW 3 10.00 Fair CLR 86 71.6 62% 92 29.86 0.0
15 19:35 SW 7 10.00 Fair CLR 84.2 71.6 66% 90 29.86 0.0
15 19:15 S 6 10.00 Fair CLR 86 71.6 62% 92 29.85 0.0
15 18:55 S 9 10.00 Fair CLR 86 71.6 62% 92 29.86 0.0
15 18:35 S 9 10.00 Fair CLR 82.4 73.4 74% 88 29.88 0.0
15 18:15 S 5 10.00 Fair CLR 80.6 71.6 74% 85 29.88 0.0
15 17:55 SE 6 G 17 10.00 Fair CLR 78.8 71.6 79% 82 29.88 0.0 0.24
15 17:35 SE 10 10.00 Thunderstorm SCT032 77 71.6 83% 78 29.88 0.0 0.24
15 17:15 E 14 G 21 2.50 Thunderstorm Rain SCT012 BKN030 OVC065 75.2 73.4 94% 74 29.88 0.0 0.24
15 16:55 N 20 G 32 10.00 Thunderstorm Rain BKN065 BKN110 80.6 69.8 70% 84 29.9 0.0
15 16:35 SW 8 10.00 Thunderstorm in Vicinity SCT060 SCT090 BKN110 96.8 71.6 44% 105 29.87 0.0
15 16:15 SW 9 10.00 Mostly Cloudy SCT047 SCT060 BKN085 96.8 71.6 44% 105 29.86 0.0
15 15:55 SW 13 G 16 10.00 Mostly Cloudy SCT060 SCT075 BKN110 96.8 71.6 44% 105 29.87 0.0
15 15:35 SW 3 10.00 Partly Cloudy SCT110 96.8 69.8 42% 103 29.88 0.0
15 15:15 SW 10 10.00 Partly Cloudy SCT080 SCT095 100.4 71.6 40% 110 29.89 0.0
15 14:55 SW 9 10.00 Mostly Cloudy BKN080 100.4 69.8 37% 108 29.9 0.0
15 14:35 W 6 10.00 Partly Cloudy SCT070 98.6 69.8 39% 106 29.9 0.0
15 14:15 NW 10 G 18 10.00 Partly Cloudy SCT070 SCT090 98.6 69.8 39% 106 29.91 0.0
15 13:55 N 6 10.00 Mostly Cloudy BKN070 BKN090 96.8 69.8 42% 103 29.91 0.0
15 13:35 N 5 10.00 Mostly Cloudy BKN070 95 69.8 44% 101 29.93 0.0
15 13:15 S 6 10.00 Partly Cloudy SCT060 96.8 71.6 44% 105 29.93 0.0
15 12:55 NW 3 10.00 Partly Cloudy SCT060 95 71.6 47% 103 29.94 0.0
15 12:35 Calm 10.00 Fair CLR 95 71.6 47% 103 29.94 0.0
15 12:15 NW 10 10.00 Partly Cloudy SCT120 95 71.6 47% 103 29.95 0.0
15 11:55 NW 13 G 18 10.00 Partly Cloudy SCT120 95 71.6 47% 103 29.96 0.0
15 11:35 NW 10 G 20 10.00 Fair CLR 93.2 71.6 50% 101 29.96 0.0
15 11:15 NW 9 G 18 10.00 Fair CLR 91.4 71.6 52% 99 29.97 0.0
15 10:55 NW 14 G 20 10.00 Fair CLR 91.4 71.6 52% 99 29.97 0.0
15 10:35 NW 14 G 21 10.00 Fair CLR 91.4 71.6 52% 99 29.98 0.0
15 10:15 W 9 10.00 Fair CLR 91.4 71.6 52% 99 29.98 0.0
15 09:55 N 9 10.00 Fair CLR 89.6 69.8 52% 95 29.99 0.0
15 09:35 NW 6 10.00 Fair CLR 87.8 69.8 55% 93 29.99 0.0
15 09:15 NW 13 10.00 Fair CLR 87.8 69.8 55% 93 30 0.0
15 08:55 NW 12 10.00 Fair CLR 86 69.8 59% 91 30 0.0
15 08:35 Calm 10.00 Fair CLR 86 69.8 59% 91 30 0.0
15 08:15 W 5 10.00 Fair CLR 82.4 68 62% 85 29.98 0.0
15 07:55 NW 3 10.00 Fair CLR 82.4 68 62% 85 29.98 0.0
15 07:35 Calm 10.00 Fair CLR 82.4 68 62% 85 29.98 0.0
15 07:15 Calm 10.00 Partly Cloudy SCT120 80.6 68 66% 83 29.98 0.0
15 06:55 Calm 10.00 Fair CLR 80.6 68 66% 83 29.98 0.0
15 06:35 Calm 10.00 Partly Cloudy SCT080 80.6 68 66% 83 29.98 0.0
15 06:15 Calm 10.00 Partly Cloudy SCT080 78.8 66.2 65% 81 29.97 0.0
15 05:55 NW 7 10.00 Partly Cloudy SCT080 80.6 66.2 62% 83 29.97 0.0
15 05:35 NW 12 G 20 10.00 Fair CLR 80.6 68 66% 83 29.96 0.0
15 05:15 NW 13 10.00 Fair CLR 80.6 68 66% 83 29.95 0.0
15 04:55 NW 10 10.00 Fair CLR 80.6 68 66% 83 29.94 0.0
15 04:35 NW 8 10.00 Mostly Cloudy BKN090 78.8 68 70% 81 29.95 0.0
15 04:15 W 6 10.00 Mostly Cloudy BKN090 75.2 69.8 83% 75 29.94 0.0
15 03:55 Calm 10.00 Mostly Cloudy BKN090 75.2 71.6 89% 75 29.93 0.0
15 03:35 Calm 10.00 Overcast OVC090 75.2 71.6 89% 75 29.93 0.0
15 03:15 Calm 10.00 Partly Cloudy SCT090 77 71.6 83% 78 29.93 0.0
15 02:55 Calm 10.00 Fair CLR 77 71.6 83% 78 29.93 0.0
15 02:35 Calm 10.00 Partly Cloudy SCT090 77 71.6 83% 78 29.93 0.0
15 02:15 Calm 10.00 Partly Cloudy SCT090 80.6 71.6 74% 85 29.93 0.0
15 01:55 Calm 10.00 Partly Cloudy SCT090 78.8 71.6 79% 82 29.93 0.0
15 01:35 Calm 10.00 Fair CLR 78.8 71.6 79% 82 29.94 0.0
15 01:15 Calm 10.00 Fair CLR 78.8 71.6 79% 82 29.94 0.0
15 00:55 Calm 10.00 Fair CLR 78.8 71.6 79% 82 29.94 0.0
15 00:35 S 3 10.00 Fair CLR 82.4 71.6 70% 87 29.94 0.0
15 00:15 SW 6 10.00 Fair CLR 82.4 71.6 70% 87 29.94 0.0
14 23:55 S 5 10.00 Fair CLR 84.2 71.6 66% 90 29.95 0.0
14 23:35 S 3 10.00 Partly Cloudy SCT120 86 71.6 62% 92 29.95 0.0
14 23:15 Calm 10.00 Partly Cloudy SCT090 SCT110 82.4 71.6 70% 87 29.95 0.0
14 22:55 SW 3 10.00 Partly Cloudy SCT090 82.4 71.6 70% 87 29.95 0.0
14 22:35 Calm 10.00 Fair CLR 84.2 71.6 66% 90 29.95 0.0
14 22:15 S 5 10.00 Fair CLR 86 71.6 62% 92 29.95 0.0
14 21:55 SW 3 10.00 Fair CLR 86 71.6 62% 92 29.95 0.0
14 21:35 S 5 10.00 Partly Cloudy SCT100 SCT120 86 71.6 62% 92 29.95 0.0
14 21:15 S 3 10.00 Partly Cloudy SCT100 SCT120 87.8 71.6 59% 94 29.96 0.0
14 20:55 S 5 10.00 Partly Cloudy SCT100 SCT120 89.6 69.8 52% 95 29.96 0.0
14 20:35 S 5 10.00 Partly Cloudy SCT110 89.6 69.8 52% 95 29.96 0.0
14 20:15 S 5 10.00 Partly Cloudy SCT110 91.4 69.8 49% 97 29.96 0.0
14 19:55 SW 3 10.00 Partly Cloudy SCT110 91.4 69.8 49% 97 29.96 0.0
14 19:35 SW 5 10.00 Fair CLR 93.2 69.8 47% 99 29.96 0.0
14 19:15 SW 10 10.00 Fair CLR 95 69.8 44% 101 29.96 0.0
14 18:55 S 9 10.00 Fair CLR 95 69.8 44% 101 29.96 0.0
14 18:35 SW 8 10.00 Fair CLR 96.8 69.8 42% 103 29.96 0.0
14 17:55 SW 7 10.00 Mostly Cloudy SCT090 BKN120 95 68 41% 100 29.96 0.0
14 17:35 S 7 10.00 Mostly Cloudy BKN090 BKN110 96.8 68 39% 102 29.96 0.0
14 17:15 S 8 10.00 Mostly Cloudy BKN090 BKN110 96.8 68 39% 102 29.96 0.0
14 16:55 S 5 7.00 Partly Cloudy SCT090 SCT110 96.8 64.4 34% 99 29.96 0.0
14 16:35 W 7 10.00 Partly Cloudy SCT090 98.6 64.4 33% 101 29.96 0.0
14 16:15 SW 3 10.00 Partly Cloudy SCT090 SCT110 98.6 68 37% 104 29.96 0.0
14 15:55 N 5 10.00 Partly Cloudy SCT090 96.8 66.2 37% 100 29.97 0.0
14 15:35 Calm 10.00 Fair CLR 96.8 68 39% 102 29.98 0.0
14 15:15 W 6 10.00 Fair CLR 96.8 68 39% 102 30 0.0
14 14:55 SW 6 10.00 Partly Cloudy SCT075 98.6 68 37% 104 30.01 0.0
14 14:35 Calm 10.00 Partly Cloudy SCT080 SCT090 95 68 41% 100 30.01 0.0
14 14:15 S 5 10.00 Mostly Cloudy SCT080 BKN090 95 68 41% 100 30.02 0.0
14 13:55 SW 3 10.00 Partly Cloudy SCT075 SCT100 95 68 41% 100 30.03 0.0
14 13:35 NW 3 10.00 Fair CLR 95 68 41% 100 30.04 0.0
14 13:15 Calm 10.00 Partly Cloudy SCT080 95 69.8 44% 101 30.05 0.0
14 12:55 N 7 10.00 Partly Cloudy SCT060 91.4 69.8 49% 97 30.05 0.0
14 12:35 NW 5 10.00 Partly Cloudy SCT060 91.4 71.6 52% 99 30.06 0.0
14 12:15 Calm 10.00 Partly Cloudy SCT075 93.2 71.6 50% 101 30.07 0.0
14 11:55 NW 5 10.00 Partly Cloudy SCT075 93.2 71.6 50% 101 30.08 0.0
14 11:35 N 8 10.00 Partly Cloudy SCT075 91.4 71.6 52% 99 30.08 0.0
14 11:15 NW 5 10.00 Partly Cloudy SCT075 91.4 71.6 52% 99 30.08 0.0
14 10:55 NW 9 10.00 Partly Cloudy SCT075 91.4 71.6 52% 99 30.08 0.0
14 10:35 NW 9 10.00 Fair CLR 91.4 71.6 52% 99 30.08 0.0
14 10:15 W 9 10.00 Fair CLR 89.6 73.4 59% 98 30.08 0.0
14 09:55 W 8 10.00 Fair CLR 87.8 73.4 62% 96 30.09 0.0
14 09:35 Calm 10.00 Fair CLR 86 75.2 70% 95 30.09 0.0
14 09:15 W 3 10.00 Partly Cloudy SCT080 82.4 75.2 79% 89 30.09 0.0
14 08:55 Calm 10.00 Partly Cloudy SCT080 82.4 75.2 79% 89 30.09 0.0
14 08:35 Calm 10.00 Partly Cloudy SCT090 80.6 75.2 84% 86 30.09 0.0
14 08:15 Calm 10.00 Partly Cloudy SCT090 80.6 75.2 84% 86 30.08 0.0
14 07:55 Calm 10.00 Partly Cloudy SCT090 78.8 75.2 89% 82 30.08 0.0
14 07:35 Calm 10.00 Fair CLR 77 75.2 94% 78 30.08 0.0
14 07:15 Calm 10.00 Fair CLR 75.2 73.4 94% 74 30.09 0.0
14 06:55 Calm 10.00 Partly Cloudy SCT090 73.4 73.4 100% 30.08 0.0
14 06:35 Calm 10.00 Mostly Cloudy BKN090 73.4 73.4 100% 30.08 0.0
Date Time (edt) Wind (mph) Vis. (mi.) Weather Sky Cond. Air Dwpt Max. Min. Relative Humidity Wind Chill (°F) Heat Index (°F) altimeter (in) sea level (mb) 1 hr 3 hr 6 hr
6 hour
Temperature (ºF) Pressure Precipitation (in)